Wind_Speed
53 53 52 51 51 50 49 49 47 47 46 46 45 44 44 44 45 45 46 46 47 47 47 48 49 49 48 46 45 44 42 41 40 41 43 42 41 42 42 42 43 42
50 51 51 51 52 52 51 51 51 50 50 49 47 46 46 46 47 47 47 47 48 48 48 50 50 50 49 48 47 45 44 42 41 42 43 42 42 42 41 42 43 43
47 47 47 48 49 50 51 52 53 53 53 52 51 49 48 48 49 49 49 49 49 49 49 50 50 51 51 50 49 47 45 44 42 43 43 42 42 42 42 42 43 43
43 43 44 45 46 47 49 51 53 54 54 54 53 52 52 52 51 51 50 50 49 49 50 51 51 52 51 51 50 48 46 44 43 44 44 42 42 42 42 43 43 44
42 41 42 42 43 45 47 50 52 52 53 54 54 55 55 54 54 53 52 51 50 50 51 51 51 52 52 51 51 49 46 45 44 45 45 43 42 42 43 44 43 44
41 41 40 40 41 43 45 48 49 50 52 53 54 55 56 56 55 54 53 52 51 51 51 51 51 52 52 52 51 49 47 46 45 46 46 44 43 43 44 44 44 44
41 40 39 39 40 41 43 45 47 49 50 51 52 54 54 55 54 54 53 53 52 52 51 51 51 52 52 52 51 49 47 46 45 46 47 45 44 43 44 44 44 45
43 42 40 39 40 40 41 43 44 46 47 49 50 51 51 52 53 53 53 53 52 51 51 51 51 52 52 52 51 49 47 47 47 47 47 46 45 44 44 45 46 46
46 46 45 43 42 41 42 43 44 45 47 48 48 49 50 51 51 51 51 51 51 50 50 50 50 51 51 51 50 49 48 47 48 48 47 46 45 44 44 46 47 46
52 51 50 49 46 45 45 46 45 45 46 48 48 49 49 50 50 50 49 49 49 48 48 48 49 49 50 50 50 50 49 49 49 48 47 46 45 45 45 47 47 47
60 57 56 54 52 50 49 49 48 47 46 47 48 49 49 49 49 48 48 49 48 47 47 47 48 48 49 50 50 50 50 50 49 47 46 46 46 46 46 47 48 48
66 63 61 59 57 55 53 51 51 50 48 47 48 48 49 49 48 48 48 48 48 47 48 47 47 48 48 49 49 50 50 50 49 47 47 47 47 47 47 48 48 49
69 67 65 62 60 58 56 54 52 51 50 48 48 48 48 48 49 48 48 48 48 48 48 47 47 47 48 48 49 50 51 50 48 48 48 48 48 48 48 48 49 49
70 69 68 65 62 61 59 56 53 52 51 49 48 48 48 49 49 49 50 49 48 47 47 47 47 47 47 48 49 50 50 50 49 49 49 49 49 48 48 48 49 49
67 68 67 66 64 63 61 58 55 53 51 50 49 49 49 50 50 51 51 49 48 47 47 47 47 47 48 48 49 50 50 50 50 50 50 50 49 49 49 49 49 50
62 64 63 63 62 62 61 59 57 55 53 51 50 50 51 52 52 51 51 49 49 48 48 48 48 49 49 49 50 50 51 51 51 51 51 51 50 50 50 50 51 51
59 60 60 59 58 58 59 59 58 56 54 52 51 51 52 53 53 53 52 51 50 50 50 50 50 51 52 51 51 51 51 52 52 52 53 52 52 52 51 51 52 53
59 58 58 58 57 56 56 57 57 57 56 55 53 52 53 54 54 54 54 53 52 51 51 52 52 54 54 54 53 53 53 53 53 54 54 54 54 53 53 54 54 54
59 59 59 59 59 58 57 56 56 56 56 55 54 53 53 54 55 56 56 56 54 54 53 54 55 55 55 55 55 55 55 55 55 55 55 56 56 55 55 56 56 56
60 60 60 61 61 60 59 57 56 55 55 55 54 53 53 54 55 56 57 58 57 57 56 56 56 57 57 57 57 57 57 57 56 56 56 56 56 57 57 58 58 58
63 62 62 62 63 63 62 59 58 57 56 56 56 55 54 54 55 56 57 58 59 59 59 58 58 59 59 59 59 59 59 58 58 58 57 57 57 57 58 59 59 60
65 64 64 64 64 65 65 63 61 59 59 59 59 59 58 57 57 57 57 58 59 59 60 61 61 61 61 61 62 62 61 61 60 59 59 58 58 58 59 59 60 61
67 66 65 65 65 67 68 68 66 64 62 62 62 62 62 62 61 60 59 59 59 59 60 61 62 63 63 63 64 64 64 63 63 62 62 61 60 60 61 61 61 62
69 68 66 65 65 67 69 70 70 69 67 65 65 64 64 64 64 63 63 62 61 61 61 61 62 63 63 64 64 65 65 65 66 65 64 64 63 63 64 64 64 64
70 70 69 67 65 66 67 70 71 71 70 69 68 67 66 66 65 65 65 65 64 64 63 62 63 64 64 64 65 65 66 66 66 66 65 65 65 65 65 65 65 66
69 70 71 70 69 66 66 68 70 71 72 71 71 70 69 68 68 67 67 67 66 66 65 64 64 64 64 65 65 66 66 66 66 66 65 65 65 65 65 65 65 66
Wind_Direction
265 266 265 265 264 263 263 262 262 262 261 260 261 262 263 263 263 263 264 264 265 266 266 266 266 267 268 269 269 269 270 271 273 274 273 272 270 268 269 269 269 268
263 264 265 265 265 265 265 265 262 261 261 261 261 261 262 263 264 264 264 265 266 266 267 267 268 268 267 268 269 269 269 270 271 272 271 271 269 267 267 267 267 267
262 264 265 265 265 265 265 264 263 261 261 262 262 262 262 263 263 264 264 265 266 267 267 268 268 268 267 267 268 268 268 268 269 270 270 270 269 267 266 265 265 266
264 265 266 266 265 265 265 264 263 262 261 261 262 262 262 262 262 263 264 265 266 266 267 267 267 267 267 267 267 267 267 267 268 269 269 268 267 266 264 263 263 264
264 266 267 267 267 267 266 265 264 263 261 261 260 260 261 261 262 262 263 265 265 266 266 267 267 266 267 266 267 267 266 266 267 268 268 268 266 264 262 261 261 262
262 264 266 268 269 269 268 267 266 264 262 261 260 259 260 260 261 261 263 264 264 264 265 266 265 265 266 266 266 266 266 266 266 267 268 268 266 262 260 260 260 260
260 262 265 267 269 270 270 270 269 267 265 263 261 260 260 260 260 261 261 262 263 264 264 265 264 264 264 264 265 265 265 265 265 266 267 267 265 261 260 259 259 258
259 261 263 265 267 270 272 273 272 269 267 264 262 261 261 260 260 260 261 262 263 264 264 264 263 262 262 263 264 264 264 264 264 265 265 265 264 261 259 259 258 258
260 261 262 263 266 269 273 274 273 270 267 265 263 262 261 261 260 260 261 262 262 262 262 262 262 261 261 261 262 262 262 262 262 263 264 264 263 261 259 258 257 258
261 262 263 263 265 268 271 272 272 270 267 265 263 262 261 260 261 261 261 262 261 260 260 260 259 259 259 259 259 260 260 260 261 262 263 263 261 259 258 257 257 258
260 262 263 264 265 267 269 270 270 270 269 267 264 263 262 261 262 262 262 261 260 259 258 258 257 257 257 258 258 259 260 260 261 261 261 261 259 258 257 256 257 258
259 260 262 262 263 265 267 268 269 269 270 269 267 265 264 263 263 262 261 261 260 259 258 257 256 256 257 258 258 259 260 260 260 260 259 259 257 257 256 256 257 258
257 258 259 260 261 262 264 266 267 267 269 269 268 266 265 264 264 262 261 261 260 259 259 258 257 257 257 258 259 260 261 261 260 259 258 257 257 257 257 257 258 259
255 256 257 257 258 259 262 263 264 264 265 266 266 266 266 265 264 263 262 262 262 261 260 259 259 259 259 259 260 260 261 261 260 259 258 258 258 258 258 258 259 259
253 255 256 256 257 258 259 260 260 260 261 263 264 265 264 264 263 264 264 265 264 262 261 261 261 261 261 261 261 261 260 260 260 259 260 259 259 259 259 259 259 260
253 254 254 255 256 256 256 256 256 256 257 258 260 261 262 263 263 264 264 264 263 262 262 262 262 262 262 262 262 262 261 261 260 260 260 260 260 260 260 260 260 260
256 255 254 254 254 254 254 253 253 252 253 254 256 257 259 260 262 262 263 262 262 262 262 262 262 263 263 263 263 262 262 261 261 261 261 261 261 261 261 261 261 261
258 257 256 255 254 252 252 251 251 251 250 251 252 253 256 258 260 261 262 262 262 262 262 262 263 263 263 264 264 264 263 262 261 261 261 262 262 262 262 263 263 263
259 259 258 257 255 254 252 251 250 251 250 250 251 252 254 256 259 260 261 262 262 262 262 262 263 264 264 264 265 265 265 264 263 263 263 263 263 264 264 264 265 266
256 257 258 258 257 256 255 254 253 253 252 253 253 253 254 255 257 259 261 262 262 262 262 262 263 264 265 265 266 266 266 266 265 265 265 265 265 265 265 266 266 267
252 254 255 256 256 256 256 256 256 256 256 256 255 255 255 256 256 257 259 260 261 262 262 262 263 263 264 265 265 266 266 266 266 266 266 266 266 266 266 267 267 268
252 252 252 253 254 255 255 255 256 258 259 259 259 259 258 258 258 258 258 259 260 261 262 262 262 262 263 264 264 265 266 266 266 267 267 267 267 268 268 268 268 269
254 254 253 252 253 253 254 254 255 257 259 260 260 261 261 261 261 261 261 261 261 261 261 262 262 262 263 263 264 264 265 266 267 267 268 269 269 269 270 270 270 271
255 256 256 255 254 253 253 254 255 256 258 259 259 260 261 262 262 263 263 263 263 262 262 263 263 263 263 263 264 264 265 266 266 267 268 269 270 270 270 271 272 272
257 257 258 257 256 254 253 253 254 255 257 258 259 259 260 260 261 261 261 262 262 263 263 263 264 264 263 263 264 264 265 265 266 267 268 269 269 270 271 271 272 273
260 260 260 259 258 256 254 253 253 255 256 258 259 259 259 259 259 259 259 259 260 261 262 262 262 263 263 263 263 264 265 265 266 267 268 268 269 270 271 272 272 272
Height
5795 5796 5798 5799 5800 5801 5803 5803 5804 5804 5804 5804 5804 5805 5806 5806 5805 5805 5805 5805 5805 5805 5805 5805 5805 5805 5806 5806 5806 5806 5806 5807 5806 5805 5803 5803 5802 5801 5800 5799 5798 5797
5789 5789 5791 5793 5794 5795 5796 5797 5797 5798 5798 5798 5799 5800 5800 5800 5800 5799 5799 5799 5799 5799 5799 5799 5799 5799 5799 5800 5800 5800 5801 5801 5801 5800 5798 5798 5797 5796 5796 5795 5793 5793
5783 5784 5785 5786 5787 5788 5789 5789 5790 5791 5792 5793 5793 5794 5794 5794 5793 5793 5793 5793 5793 5794 5793 5793 5793 5793 5793 5794 5794 5794 5796 5796 5796 5794 5793 5793 5792 5792 5791 5790 5788 5788
5778 5779 5779 5780 5781 5781 5782 5782 5783 5785 5786 5787 5788 5787 5787 5787 5787 5787 5787 5787 5787 5787 5787 5786 5787 5786 5787 5787 5787 5788 5790 5790 5790 5789 5788 5788 5788 5787 5786 5784 5784 5784
5772 5773 5774 5774 5775 5775 5775 5775 5777 5778 5779 5780 5781 5780 5780 5780 5780 5780 5781 5781 5781 5781 5780 5780 5780 5780 5780 5781 5781 5782 5784 5785 5784 5783 5782 5783 5783 5782 5781 5779 5779 5779
5766 5767 5768 5768 5769 5769 5769 5770 5771 5771 5772 5773 5773 5773 5773 5773 5773 5774 5774 5774 5774 5774 5774 5774 5774 5774 5774 5774 5774 5776 5777 5778 5778 5777 5777 5777 5777 5776 5776 5775 5775 5775
5761 5761 5762 5763 5763 5763 5764 5764 5764 5765 5765 5766 5766 5766 5766 5766 5767 5767 5767 5767 5767 5767 5768 5768 5768 5768 5768 5768 5768 5770 5771 5772 5772 5771 5771 5771 5771 5771 5771 5770 5769 5769
5755 5756 5756 5757 5757 5758 5758 5759 5759 5758 5759 5758 5759 5759 5759 5759 5760 5760 5760 5760 5761 5761 5761 5761 5761 5762 5761 5761 5762 5764 5765 5765 5765 5765 5765 5765 5765 5765 5765 5764 5763 5764
5749 5750 5750 5751 5751 5752 5752 5753 5752 5752 5751 5751 5752 5753 5752 5752 5753 5753 5753 5754 5755 5755 5755 5755 5756 5756 5755 5755 5756 5757 5758 5758 5758 5758 5759 5759 5759 5760 5759 5758 5757 5758
5743 5744 5744 5745 5746 5746 5746 5746 5746 5746 5745 5745 5746 5746 5746 5746 5746 5746 5747 5748 5748 5749 5750 5750 5750 5749 5749 5749 5750 5751 5751 5752 5752 5752 5753 5753 5754 5754 5753 5752 5752 5752
5736 5737 5737 5738 5739 5739 5740 5740 5739 5739 5739 5739 5740 5739 5739 5740 5740 5740 5741 5741 5742 5743 5743 5743 5743 5743 5743 5743 5744 5745 5745 5746 5746 5746 5747 5747 5747 5747 5747 5746 5746 5746
5728 5729 5730 5731 5732 5732 5733 5733 5733 5733 5733 5733 5733 5733 5734 5734 5734 5734 5734 5735 5736 5736 5736 5737 5737 5738 5738 5738 5739 5739 5740 5740 5740 5741 5741 5741 5741 5741 5740 5740 5740 5741
5719 5720 5721 5723 5725 5725 5726 5726 5726 5727 5727 5727 5727 5727 5728 5728 5728 5728 5729 5729 5729 5730 5730 5731 5732 5732 5733 5734 5734 5734 5734 5734 5734 5735 5735 5734 5734 5734 5734 5735 5735 5735
5710 5712 5713 5715 5717 5718 5719 5719 5720 5720 5720 5720 5720 5721 5722 5722 5722 5723 5723 5723 5724 5725 5726 5726 5726 5727 5728 5728 5728 5728 5728 5728 5728 5729 5729 5728 5729 5729 5729 5729 5730 5730
5703 5704 5706 5707 5708 5710 5711 5712 5712 5712 5713 5713 5714 5715 5716 5716 5716 5717 5717 5718 5719 5720 5720 5721 5721 5722 5722 5722 5722 5722 5722 5722 5722 5722 5723 5723 5723 5723 5723 5723 5724 5724
5696 5697 5698 5699 5700 5701 5702 5703 5704 5705 5706 5707 5708 5709 5709 5710 5711 5711 5712 5713 5713 5714 5714 5715 5716 5716 5716 5716 5716 5716 5716 5716 5716 5716 5717 5717 5717 5717 5718 5718 5718 5718
5687 5689 5690 5691 5692 5693 5694 5695 5696 5697 5698 5699 5700 5701 5702 5703 5704 5705 5706 5707 5707 5708 5708 5709 5710 5709 5709 5709 5709 5709 5709 5710 5710 5710 5710 5711 5711 5711 5712 5711 5711 5711
5679 5681 5682 5683 5684 5685 5686 5687 5688 5689 5690 5691 5692 5693 5694 5695 5697 5698 5699 5699 5700 5701 5701 5702 5702 5701 5701 5702 5702 5702 5702 5703 5703 5703 5704 5704 5705 5705 5705 5705 5704 5704
5670 5672 5674 5674 5676 5677 5678 5679 5681 5681 5682 5682 5683 5684 5685 5687 5688 5689 5690 5691 5692 5693 5693 5693 5693 5693 5694 5694 5694 5695 5695 5695 5696 5696 5697 5698 5698 5698 5698 5698 5698 5697
5662 5663 5665 5666 5667 5669 5670 5671 5672 5673 5674 5675 5675 5676 5677 5679 5680 5680 5681 5682 5683 5684 5685 5685 5685 5685 5686 5686 5686 5686 5687 5687 5688 5689 5690 5690 5691 5691 5691 5690 5690 5689
5653 5655 5656 5657 5658 5660 5661 5662 5663 5664 5665 5666 5667 5668 5669 5670 5671 5672 5673 5673 5674 5675 5676 5676 5676 5677 5677 5678 5678 5678 5678 5679 5680 5681 5681 5682 5683 5683 5682 5682 5682 5681
5644 5645 5646 5648 5649 5651 5652 5653 5654 5655 5656 5657 5658 5659 5659 5661 5661 5663 5664 5664 5666 5666 5667 5667 5667 5668 5669 5669 5669 5669 5670 5671 5672 5672 5673 5674 5674 5674 5674 5674 5674 5673
5635 5636 5637 5639 5640 5641 5643 5644 5645 5646 5647 5648 5649 5649 5650 5651 5652 5654 5655 5655 5657 5657 5658 5658 5658 5659 5661 5661 5660 5661 5661 5662 5663 5664 5665 5666 5666 5666 5665 5665 5665 5665
5627 5627 5629 5630 5631 5632 5633 5635 5636 5637 5638 5640 5640 5640 5641 5642 5643 5644 5645 5646 5647 5648 5649 5650 5649 5650 5652 5652 5652 5652 5653 5654 5654 5655 5656 5657 5657 5657 5656 5657 5657 5657
5618 5619 5620 5621 5622 5624 5625 5626 5627 5628 5629 5630 5631 5631 5632 5633 5634 5635 5635 5636 5637 5638 5640 5641 5640 5640 5642 5643 5643 5642 5643 5644 5645 5646 5648 5648 5647 5647 5647 5648 5648 5648
5609 5610 5611 5613 5614 5615 5616 5617 5618 5619 5620 5621 5621 5622 5623 5624 5624 5625 5625 5626 5628 5629 5630 5631 5630 5630 5631 5633 5634 5633 5633 5635 5635 5637 5638 5638 5638 5638 5639 5639 5638 5638